Volver al catálogo

COSMOS 2251 DEB

ActivoLEO
NORAD 40218·DEBRIS·🇷🇺 Russia

Lanzado Jun 16, 1993 desde Plesetsk Cosmodrome

Loading…

Próximos Pases (próximas 24 horas)

TLE

ActualizadoSource: Space-Track

Época: Sep 14, 2026, 07:04 UTC

1 40218U 93036BUX 26257.29449649  .00000567  00000-0  18009-3 0  9994
2 40218  74.0284  97.9371 0016024 120.8589 239.4146 14.42131367628337

Sigue COSMOS 2251 DEB en tiempo real con AllMySat

Download on the App Store